Date String (YYYY-MM-DD hh:mm:ss) UTC,Instrument flags,Ambient pressure (hPa),Sample flow (lpm),Bypass flow (lpm),Sample temperature (°C),Ambient temperature (°C),ASC tube jacket temperature (°C),LED temperature (°C),Box temperature (°C),Sample RH (%),Span deviation,Mass concentration (μg/m³),Mass concentration (μg/m³),Mass concentration (μg/m³)
DateTimeUTC,F1_M11,P_M11,Q1_M11,Q2_M11,T1_M11,T2_M11,T3_M11,T4_M11,T5_M11,U1_M11,ZSPAN_M11,X0_M11,X2_M11,X1_M11
2022-09-05 03:00:00,,0827.5,4.98,0.00,29.6,28.7,00.0,38.2,31.6,15.7,0000.0,0014.30,0007.47,0006.52
2022-09-05 03:01:00,,0827.5,5.00,0.00,29.6,27.7,00.0,38.2,31.5,15.7,0000.0,0013.57,0007.44,0006.53
2022-09-05 03:02:00,,0827.5,5.02,0.00,29.6,26.3,00.0,38.2,31.3,15.8,0000.0,0013.31,0007.40,0006.54
2022-09-05 03:03:00,,0827.5,4.99,0.00,29.5,26.2,00.0,38.2,31.3,15.8,0000.0,0013.23,0007.36,0006.55
2022-09-05 03:04:00,,0827.5,5.01,0.00,29.5,26.5,00.0,38.1,31.2,15.8,0000.0,0013.22,0007.36,0006.57
2022-09-05 03:05:00,,0827.5,4.99,0.00,29.4,26.8,00.0,38.1,31.1,15.8,0000.0,0013.26,0007.38,0006.60
2022-09-05 03:06:00,,0827.5,5.00,0.00,29.4,27.2,00.0,38.1,31.1,15.8,0000.0,0013.47,0007.44,0006.63
2022-09-05 03:07:00,,0827.5,5.00,0.00,29.4,27.5,00.0,38.1,31.2,15.8,0000.0,0013.48,0007.44,0006.65
2022-09-05 03:08:00,,0827.5,5.01,0.00,29.4,27.8,00.0,38.1,31.3,15.8,0000.0,0013.20,0007.47,0006.68
2022-09-05 03:09:00,,0827.5,4.98,0.00,29.4,28.0,00.0,38.1,31.3,15.7,0000.0,0012.25,0007.52,0006.70
2022-09-05 03:10:00,,0827.5,5.01,0.00,29.5,28.2,00.0,38.1,31.4,15.7,0000.0,0012.06,0007.57,0006.72
2022-09-05 03:11:00,,0827.6,5.00,0.00,29.5,28.3,00.0,38.1,31.4,15.7,0000.0,0012.78,0007.61,0006.73
2022-09-05 03:12:00,,0827.6,4.98,0.00,29.5,28.5,00.0,38.2,31.5,15.7,0000.0,0013.39,0007.63,0006.72
2022-09-05 03:13:00,,0827.5,5.01,0.00,29.6,28.6,00.0,38.2,31.5,15.6,0000.0,0014.29,0007.67,0006.73
2022-09-05 03:14:00,,0827.6,4.99,0.00,29.6,28.7,00.0,38.2,31.6,15.6,0000.0,0014.38,0007.72,0006.75
2022-09-05 03:15:00,,0827.5,5.00,0.00,29.7,28.3,00.0,38.2,31.6,15.6,0000.0,0014.75,0007.78,0006.74
2022-09-05 03:16:00,,0827.5,5.01,0.00,29.6,26.9,00.0,38.2,31.4,15.6,0000.0,0015.15,0007.80,0006.75
2022-09-05 03:17:00,,0827.4,4.99,0.00,29.5,26.3,00.0,38.2,31.3,15.8,0000.0,0015.63,0007.83,0006.76
2022-09-05 03:18:00,,0827.5,4.99,0.00,29.5,26.4,00.0,38.2,31.2,15.8,0000.0,0016.15,0007.87,0006.77
2022-09-05 03:19:00,,0827.4,5.00,0.00,29.4,26.7,00.0,38.1,31.1,15.8,0000.0,0016.33,0007.86,0006.75
2022-09-05 03:20:00,,0827.5,5.00,0.00,29.4,27.1,00.0,38.1,31.2,15.9,0000.0,0016.32,0007.83,0006.75
2022-09-05 03:21:00,,0827.5,5.01,0.00,29.4,27.4,00.0,38.1,31.2,15.8,0000.0,0017.20,0007.85,0006.75
2022-09-05 03:22:00,,0827.5,5.00,0.00,29.4,27.7,00.0,38.1,31.3,15.8,0000.0,0016.87,0007.83,0006.74
2022-09-05 03:23:00,,0827.5,5.00,0.00,29.4,28.0,00.0,38.1,31.3,15.8,0000.0,0016.73,0007.85,0006.75
2022-09-05 03:24:00,,0827.5,5.01,0.00,29.5,28.2,00.0,38.1,31.4,15.9,0000.0,0016.41,0007.84,0006.76
2022-09-05 03:25:00,,0827.5,4.98,0.00,29.5,28.3,00.0,38.1,31.4,15.7,0000.0,0016.69,0007.80,0006.75
2022-09-05 03:26:00,,0827.5,5.01,0.00,29.5,28.4,00.0,38.2,31.5,15.7,0000.0,0016.77,0007.76,0006.76
2022-09-05 03:27:00,,0827.5,5.02,0.00,29.6,28.5,00.0,38.2,31.5,15.7,0000.0,0016.51,0007.75,0006.75
2022-09-05 03:28:00,,0827.6,4.98,0.00,29.6,28.7,00.0,38.2,31.6,15.6,0000.0,0016.86,0007.74,0006.75
2022-09-05 03:29:00,,0827.5,5.01,0.00,29.7,28.8,00.0,38.3,31.6,15.5,0000.0,0017.73,0007.78,0006.76
2022-09-05 03:30:00,,0827.5,4.99,0.00,29.7,28.7,00.0,38.3,31.7,15.4,0000.0,0017.67,0007.80,0006.77
2022-09-05 03:31:00,,0827.5,5.00,0.00,29.7,27.5,00.0,38.3,31.6,15.4,0000.0,0018.65,0007.78,0006.78
2022-09-05 03:32:00,,0827.5,5.00,0.00,29.6,26.3,00.0,38.3,31.4,15.5,0000.0,0017.59,0007.75,0006.76
2022-09-05 03:33:00,,0827.5,5.00,0.00,29.6,26.3,00.0,38.2,31.4,15.5,0000.0,0017.50,0007.81,0006.77
2022-09-05 03:34:00,,0827.5,5.01,0.00,29.5,26.6,00.0,38.2,31.2,15.5,0000.0,0017.17,0007.82,0006.76
2022-09-05 03:35:00,,0827.4,5.01,0.00,29.5,26.9,00.0,38.1,31.2,15.5,0000.0,0016.57,0007.81,0006.75
2022-09-05 03:36:00,,0827.4,5.01,0.00,29.5,27.3,00.0,38.1,31.2,15.6,0000.0,0016.21,0007.82,0006.74
2022-09-05 03:37:00,,0827.4,5.00,0.00,29.5,27.6,00.0,38.1,31.3,15.5,0000.0,0015.78,0007.83,0006.73
2022-09-05 03:38:00,,0827.4,5.01,0.00,29.5,27.8,00.0,38.1,31.3,15.5,0000.0,0015.65,0007.79,0006.71
2022-09-05 03:39:00,,0827.4,5.01,0.00,29.5,28.0,00.0,38.2,31.4,15.5,0000.0,0015.46,0007.77,0006.70
2022-09-05 03:40:00,,0827.4,4.98,0.00,29.5,28.2,00.0,38.2,31.4,15.5,0000.0,0015.12,0007.70,0006.67
2022-09-05 03:41:00,,0827.4,5.01,0.00,29.6,28.4,00.0,38.2,31.5,15.5,0000.0,0014.87,0007.62,0006.65
2022-09-05 03:42:00,,0827.4,5.00,0.00,29.6,28.5,00.0,38.2,31.5,15.5,0000.0,0013.66,0007.64,0006.65
2022-09-05 03:43:00,,0827.4,5.00,0.00,29.6,28.6,00.0,38.2,31.6,15.5,0000.0,0013.61,0007.66,0006.65
2022-09-05 03:44:00,,0827.4,5.01,0.00,29.7,28.7,00.0,38.3,31.6,15.4,0000.0,0013.48,0007.64,0006.66
2022-09-05 03:45:00,,0827.4,5.00,0.00,29.7,28.8,00.0,38.3,31.7,15.4,0000.0,0013.62,0007.63,0006.65
2022-09-05 03:46:00,,0827.4,5.00,0.00,29.7,28.8,00.0,38.3,31.7,15.4,0000.0,0013.97,0007.65,0006.66
2022-09-05 03:47:00,,0827.4,4.99,0.00,29.7,27.6,00.0,38.3,31.6,15.4,0000.0,0014.02,0007.64,0006.67
2022-09-05 03:48:00,,0827.4,5.01,0.00,29.7,27.0,00.0,38.3,31.5,15.4,0000.0,0013.95,0007.64,0006.68
2022-09-05 03:49:00,,0827.4,5.00,0.00,29.7,27.1,00.0,38.3,31.4,15.4,0000.0,0014.09,0007.66,0006.69
2022-09-05 03:50:00,,0827.4,4.99,0.00,29.6,27.3,00.0,38.3,31.4,15.5,0000.0,0013.58,0007.66,0006.69
2022-09-05 03:51:00,,0827.4,5.01,0.00,29.6,27.7,00.0,38.3,31.4,15.5,0000.0,0012.95,0007.64,0006.70
2022-09-05 03:52:00,,0827.4,5.00,0.00,29.6,28.0,00.0,38.3,31.4,15.5,0000.0,0013.07,0007.65,0006.72
2022-09-05 03:53:00,,0827.4,5.00,0.00,29.6,28.2,00.0,38.3,31.5,15.5,0000.0,0013.04,0007.62,0006.73
2022-09-05 03:54:00,,0827.4,5.01,0.00,29.7,28.3,00.0,38.3,31.5,15.5,0000.0,0013.16,0007.60,0006.74
2022-09-05 03:55:00,,0827.4,4.99,0.00,29.7,28.5,00.0,38.3,31.6,15.4,0000.0,0013.80,0007.54,0006.73
2022-09-05 03:56:00,,0827.4,5.01,0.00,29.7,28.6,00.0,38.4,31.6,15.4,0000.0,0013.81,0007.48,0006.74
2022-09-05 03:57:00,,0827.4,5.01,0.00,29.8,28.7,00.0,38.4,31.7,15.4,0000.0,0013.92,0007.49,0006.73
2022-09-05 03:58:00,,0827.4,4.99,0.00,29.8,28.8,00.0,38.4,31.8,15.4,0000.0,0014.59,0007.47,0006.72
2022-09-05 03:59:00,,0827.4,5.00,0.00,29.8,28.6,00.0,38.4,31.7,15.4,0000.0,0014.82,0007.48,0006.72
